Flag for U.S.A. Weather past 2 weeks in Yonkers, New York, U.S.A.

Now
82 °F

Passing clouds.


Feels Like: 83 °F
Forecast: 69 / 80 °F
Wind: 10 mph from Northeast

Location: Teterboro Airport

Current Time: Sep 4, 2015 at 5:25:53 PM

Latest Report: Sep 4, 2015 at 4:51 PM


Visibility: 10 mi

Pressure: 30.09 "Hg

Humidity: 53%

Dew point: 63 °F

Location of YonkersLocation

Historic Weather in Yonkers — Graph

°F

Yonkers temperature yesterday

Maximum temperature yesterday: 93 °F (at 3:51 PM)
Minimum temperature yesterday: 71 °F (at 5:51 AM)
Average temperature yesterday: 82 °F

Past Weeks' High & Low Weather Summary

 TemperatureHumidityPressure
High93 °F (Sep 3, 3:51 PM)85% (Aug 21, 1:51 AM)30.21 "Hg (Aug 21, 1:51 AM)
Low61 °F (Aug 28, 6:51 AM)30% (Aug 25, 5:51 PM)29.78 "Hg (Aug 25, 4:51 PM)
Average77 °F56%29.99 "Hg
* Reported Aug 20 3:51 PM — Sep 4 3:51 PM, Yonkers, Weather by CustomWeather, © 2015

Note: Actual official high and low records may vary slightly from our data, if they occured in-between our weather recording intervals... More about our weather records

Advertising

Yonkers weather history for previous 24 hours

 ConditionsComfort  
Time TempWeatherWind HumidityBarometerVisibility
3:51 PM
Fri, Sep 4
83 °FPartly sunny.10 mph53%30.09 "Hg10 mi
2:51 PM82 °FPartly sunny.14 mph53%30.09 "Hg10 mi
1:51 PM81 °FPartly sunny.10 mph56%30.09 "Hg8 mi
12:51 PM81 °FPassing clouds.12 mph60%30.09 "Hg10 mi
11:51 AM80 °FMore clouds than sun.14 mph62%30.07 "Hg10 mi
10:51 AM80 °FOvercast.13 mph62%30.06 "Hg10 mi
9:51 AM81 °FScattered clouds.10 mph58%30.04 "Hg10 mi
8:51 AM79 °FPassing clouds.6 mph65%30.02 "Hg10 mi
7:51 AM77 °FSunny.3 mph69%30.01 "Hg10 mi
6:51 AM75 °FClear.3 mph74%29.98 "Hg10 mi
5:51 AM75 °FClear.6 mph74%29.95 "Hg10 mi
4:51 AM76 °FClear.No wind72%29.92 "Hg10 mi
3:51 AM76 °FClear.3 mph69%29.91 "Hg10 mi
2:51 AM77 °FClear.6 mph66%29.90 "Hg10 mi
1:51 AM79 °FClear.No wind62%29.90 "Hg10 mi
12:51 AM80 °FClear.3 mph58%29.89 "Hg10 mi
11:51 PM
Thu, Sep 3
81 °FClear.5 mph54%29.88 "Hg10 mi
10:51 PM82 °FClear.No wind55%29.88 "Hg8 mi
9:51 PM81 °FClear.No wind56%29.87 "Hg9 mi
8:51 PM82 °FClear.8 mph55%29.85 "Hg10 mi
7:51 PM88 °FSunny.3 mph38%29.82 "Hg10 mi
6:51 PM90 °FSunny.5 mph34%29.81 "Hg10 mi
5:51 PM91 °FSunny.6 mph36%29.80 "Hg10 mi
Weather by CustomWeather, © 2015

See weather overviewHow to use our weather pages